#timestamp,LO_Frequency,Hit,StdDev 
1619589615.3,286047001.0,N
1619589635.2,286046998.2,N
1619589655.0,286047000.6,N
1619589655.9,286047000.6,N
1619589675.7,286047002.7,N
1619589695.6,286047000.8,N
1619589715.4,286046998.1,N
1619589735.3,286046998.2,N
1619589755.1,286046999.0,N
1619589775.9,286046998.9,N
1619589795.7,286046998.5,N
1619589815.5,286046998.4,N
1619589835.4,286046998.3,N
1619589855.2,286047000.2,N
1619589875.0,286047002.6,N
1619589875.9,286047002.6,N
1619589895.8,286047000.3,N
1619589915.6,286046998.1,N
1619589935.5,286046997.3,N
1619589955.3,286046995.2,N
1619589975.1,286046997.7,N
1619589995.9,286046998.5,N
1619590015.7,286046998.3,N
1619590035.5,286046998.7,N
1619590055.4,286047001.1,N
1619590075.2,286047000.1,N
1619590095.0,286047000.3,N
1619590096.0,286047000.3,N
1619590115.8,286047000.7,N
1619590135.6,286047000.5,N
1619590155.5,286047002.5,N
1619590175.3,286047002.1,N
1619590195.1,286047002.7,N
1619590215.9,286047002.6,N
1619590235.7,286047001.9,N
1619590255.5,286046998.2,N
1619590275.4,286047000.9,N
1619590295.2,286047000.4,N
1619590315.1,286047001.0,N
1619590316.0,286047001.0,N
1619590335.8,286046998.7,N
1619590355.6,286046998.4,N
1619590375.5,286046996.5,N
1619590395.3,286047001.2,N
1619590415.1,286047001.2,N
1619590435.9,286047000.1,N
1619590455.7,286047002.3,N
1619590475.6,286047000.2,N
1619590495.4,286046998.5,N
1619590515.2,286046999.2,N
1619590535.1,286046997.5,N
1619590536.0,286046997.5,N
1619590555.8,286046997.3,N
1619590575.6,286046997.7,N
1619590595.5,286047001.2,N
1619590615.3,286047000.4,N
1619590635.2,286046998.3,N
1619590655.9,286046999.0,N
1619590675.7,286046999.5,N
1619590695.6,286046999.2,N
1619590715.4,286046999.3,N
1619590735.2,286046998.8,N
1619590755.1,286046999.4,N
1619590756.0,286046999.4,N
1619590775.8,286046998.6,N
1619590795.7,286047000.2,N
1619590815.5,286047001.0,N
1619590835.3,286046998.6,N
1619590855.2,286047001.2,N
1619590875.0,286047000.5,N
1619590875.9,286047000.5,N
1619590895.7,286047000.9,N
1619590915.6,286046999.7,N
1619590935.4,286047000.1,N
1619590955.3,286047001.5,N
1619590975.1,286047000.3,N
1619590976.0,286047000.3,N
1619590995.8,286047001.2,N
1619591015.7,286046998.6,N
1619591035.5,286047001.0,N
1619591055.3,286046999.9,N
1619591075.2,286047000.9,N
1619591095.0,286046998.6,N
1619591095.9,286046998.6,N
1619591115.8,286046999.9,N
1619591135.6,286047001.0,N
1619591155.4,286047000.9,N
1619591175.3,286047001.0,N
1619591195.1,286046999.1,N
1619591215.8,286046997.4,N
1619591235.7,286047011.9,Y
1619591255.5,286046999.1,P
1619591275.4,286046998.7,P
1619591295.2,286046998.5,N
1619591315.0,286047000.5,N
1619591315.9,286047000.5,N
1619591335.8,286046998.8,N
1619591355.6,286046998.9,N
1619591375.5,286046998.9,N
1619591395.3,286046996.8,Y
1619591415.1,286046999.3,P
1619591435.9,286046996.6,P
1619591455.7,286046997.6,N
1619591475.5,286046995.3,Y
1619591495.4,286046999.4,P
1619591515.2,286047000.0,N
1619591535.1,286046998.2,N
1619591536.0,286046998.2,N
1619591555.8,286047000.7,N
1619591575.6,286047001.9,N
1619591595.5,286047002.4,N
1619591615.3,286047002.6,N
1619591635.2,286047000.9,N
1619591655.9,286046998.3,N
1619591675.7,286046998.1,N
1619591695.6,286046999.9,N
1619591715.4,286046999.9,N
1619591735.3,286047000.8,N
1619591755.1,286046999.6,N
1619591756.0,286046999.6,N
1619591775.8,286046999.1,N
1619591795.7,286046996.7,N
1619591815.5,286046995.8,N
1619591835.4,286046995.3,N
1619591855.2,286046995.2,N
1619591875.0,286046996.7,N
1619591875.9,286046996.7,N
1619591895.8,286046998.0,N
1619591915.6,286046998.0,N
1619591935.4,286046994.1,N
1619591955.3,286046991.9,Y
1619591975.1,286046995.9,P
1619591995.9,286046995.0,P
1619592015.7,286046995.2,P
1619592035.5,286046996.1,N
1619592055.4,286046993.8,Y
1619592075.2,286046999.4,P
1619592095.1,286046998.1,N
1619592096.0,286046998.1,N
1619592115.8,286047002.6,N
1619592135.6,286047001.2,N
1619592155.5,286047001.0,N
1619592175.3,286047000.8,N
1619592195.2,286046999.0,N
1619592215.9,286046997.2,N
1619592235.7,286046998.4,N
1619592255.6,286047000.2,N
1619592275.4,286047001.3,N
1619592295.3,286047002.9,N
1619592315.1,286047003.0,N
1619592316.0,286047003.0,N
1619592335.8,286047001.6,N
1619592355.7,286047004.4,N
1619592375.5,286047003.6,N
1619592395.3,286047003.5,N
1619592415.2,286047007.3,Y
1619592435.0,286047005.3,P
1619592435.9,286047005.3,N
1619592455.8,286047004.1,N
1619592475.6,286047003.2,N
1619592495.4,286047005.2,Y
1619592515.3,286046999.9,P
1619592535.1,286046998.1,N
1619592555.9,286047000.5,N
1619592575.7,286047001.8,N
1619592595.5,286047000.9,N
1619592615.4,286046998.9,N
1619592635.2,286046998.4,N
1619592655.0,286046998.7,N
1619592655.9,286046998.7,N
1619592675.8,286046999.0,N
1619592695.6,286046998.7,N
1619592715.5,286046999.3,N
1619592735.3,286046996.7,N
1619592755.1,286046997.5,N
1619592775.9,286046995.2,N
1619592795.7,286046995.1,N
1619592815.6,286046996.0,N
1619592835.4,286046994.1,N
1619592855.2,286046994.2,N
1619592875.1,286046995.6,N
1619592876.0,286046995.6,N
1619592895.8,286046997.4,N
1619592915.7,286046998.8,N
1619592935.5,286046998.4,N
1619592955.3,286047000.5,N
1619592975.2,286047004.2,N
1619592995.0,286047001.4,N
1619592995.9,286047001.4,N
1619593015.8,286047002.4,N
1619593035.6,286046998.8,N
1619593055.4,286047000.9,N
1619593075.3,286046998.4,N
1619593095.1,286046999.2,N
1619593115.8,286047000.4,N
1619593135.7,286047000.1,N
1619593155.5,286046998.9,N
1619593175.4,286046999.2,N
1619593195.2,286047001.2,N
